Home > Weather > Fort Wayne > Past weeks

Flag for U.S.A. Weather for the Past 2 Weeks in Fort Wayne, Indiana, U.S.A.

Now
19 °F

Light snow. Mostly cloudy.


Feels Like: 3 °F
Forecast: 15 / 22 °F
Wind: 18 mph from West

Location: Fort Wayne International Airport

Current Time: Feb 10, 2016 at 1:56:17 AM

Latest Report: Feb 10, 2016 at 12:54 AM


Visibility: 6 mi

Pressure: 29.88 "Hg

Humidity: 74%

Dew point: 12 °F

Location of Fort WayneLocation

Historic Weather in Fort Wayne — Graph

°F

Fort Wayne Temperature Yesterday

Maximum temperature yesterday: 35 °F (at 3:54 PM)
Minimum temperature yesterday: 19 °F (at 11:54 PM)
Average temperature yesterday: 26 °F

High & Low Weather Summary for the Past Weeks

 TemperatureHumidityPressure
High58 °F (Feb 2, 11:54 PM)93% (Feb 1, 10:54 PM)30.40 "Hg (Feb 1, 10:54 PM)
Low19 °F (Feb 9, 11:54 PM)46% (Feb 7, 3:54 PM)29.46 "Hg (Feb 3, 1:54 AM)
Average34 °F77%29.94 "Hg
* Reported Jan 25 11:54 PM — Feb 9 11:54 PM, Fort Wayne, Weather by CustomWeather, © 2016

Note: Actual official high and low records may vary slightly from our data, if they occured in-between our weather recording intervals... More about our weather records

Advertising

Fort Wayne Weather History for the Previous 24 Hours

 ConditionsComfort  
Time TempWeatherWind HumidityBarometerVisibility
11:54 PM
Tue, Feb 9
19 °FLight snow. Mostly cloudy.18 mph74%29.88 "Hg6 mi
10:54 PM20 °FLight snow. Mostly cloudy.18 mph71%29.88 "Hg8 mi
9:54 PM21 °FLight snow. Overcast.20 mph71%29.88 "Hg7 mi
8:54 PM20 °FLight snow. Overcast.16 mph74%29.88 "Hg9 mi
7:54 PM21 °FOvercast.17 mph71%29.88 "Hg10 mi
6:54 PM21 °FLight snow. Mostly cloudy.16 mph85%29.86 "Hg9 mi
5:54 PM23 °FLight snow. Mostly cloudy.18 mph78%29.82 "Hg6 mi
4:54 PM34 °FLight snow. More clouds than sun.14 mph54%29.79 "Hg8 mi
3:54 PM35 °FLight snow. Overcast.13 mph50%29.75 "Hg9 mi
2:54 PM30 °FLight snow. Mostly cloudy.12 mph72%29.73 "Hg8 mi
1:54 PM29 °FLight snow. Overcast.16 mph72%29.72 "Hg9 mi
12:54 PM28 °FMostly cloudy.15 mph75%29.72 "Hg10 mi
11:54 AM27 °FLight snow. Overcast.16 mph75%29.72 "Hg9 mi
10:54 AM27 °FLight snow. Overcast.14 mph75%29.72 "Hg4 mi
9:54 AM27 °FLight snow. Overcast.20 mph72%29.71 "Hg7 mi
8:54 AM26 °FLight snow. Overcast.16 mph74%29.71 "Hg9 mi
7:59 AM26 °FLight snow. Overcast.17 mph77%29.67 "Hg3 mi
6:54 AM27 °FLight snow. Overcast.16 mph78%29.68 "Hg5 mi
5:54 AM28 °FLight snow. Overcast.15 mph75%29.66 "Hg6 mi
4:54 AM27 °FLight snow. Overcast.17 mph81%29.65 "Hg6 mi
3:54 AM27 °FLight snow. Overcast.15 mph81%29.65 "Hg6 mi
2:54 AM28 °FLight snow. Overcast.16 mph78%29.66 "Hg8 mi
1:54 AM29 °FOvercast.14 mph75%29.67 "Hg8 mi
Weather by CustomWeather, © 2016

See weather overviewHow to use our weather pages